RH
54 65 66 48 45 44 39 32 48 52 46 45 45 46 39 36 32 31 32 32 36 40 64 74 74 78 72 67 63 70 72 75 78 80 75 78 81 88 86 81 75 76 79 80
54 61 56 48 42 37 36 34 51 46 43 46 38 33 30 32 34 32 30 34 35 51 70 73 78 75 69 67 68 73 71 75 79 82 88 86 90 93 89 81 77 78 80 76
61 58 53 44 46 40 54 44 43 48 45 43 34 29 26 43 44 56 50 40 44 54 67 71 70 72 72 72 76 71 73 72 76 83 82 84 81 80 77 81 82 79 78 77
61 60 46 50 52 46 42 56 48 44 40 44 38 31 26 42 47 62 67 52 53 67 73 70 68 72 76 76 77 74 72 69 68 73 74 74 74 72 86 88 84 79 76 75
68 67 53 47 57 59 47 54 54 49 50 56 39 63 30 48 40 46 63 64 61 72 73 72 72 69 73 75 79 75 70 69 71 73 74 80 79 86 89 83 76 76 77 75
74 66 68 64 60 58 60 56 61 65 59 63 65 65 46 36 50 47 67 65 58 68 76 76 76 76 78 81 79 76 70 68 71 72 75 73 73 80 79 78 79 80 80 79
54 62 70 65 55 58 48 58 77 60 70 60 73 75 43 40 57 57 53 56 61 64 72 76 80 82 81 80 80 75 72 68 70 71 73 75 75 77 74 76 82 78 78 78
68 62 70 69 68 53 63 46 69 40 58 57 59 66 58 44 52 57 60 58 62 67 72 76 78 80 81 79 82 79 75 71 70 72 71 75 74 79 79 78 83 81 81 80
56 72 76 72 71 55 49 58 50 63 70 54 60 39 28 45 45 58 69 68 69 72 73 78 78 74 77 80 80 81 76 74 72 70 72 73 75 78 79 78 80 81 80 72
60 70 77 73 71 60 54 43 47 66 32 36 50 43 58 56 47 65 76 75 76 71 70 66 66 66 68 72 76 81 79 72 71 72 72 69 72 76 77 78 77 78 78 75
58 54 74 75 69 61 57 56 55 46 40 29 27 51 53 65 57 60 74 70 68 62 64 68 68 69 69 70 75 78 80 74 72 71 72 73 72 74 77 78 78 78 76 66
53 57 83 66 71 71 69 57 50 52 37 53 41 48 42 66 67 68 70 60 72 73 75 78 78 77 74 69 73 78 80 78 74 70 70 72 73 74 79 79 78 75 63 50
39 38 59 38 50 61 70 67 48 53 58 54 42 32 59 71 69 66 68 77 77 78 81 83 83 82 81 76 73 75 78 79 75 71 71 73 73 74 74 74 74 70 57 48
44 44 29 40 33 47 57 59 59 49 74 46 44 40 45 67 63 68 78 81 81 80 78 81 83 84 82 79 73 72 70 70 68 68 70 69 66 63 60 57 56 57 52 49
37 29 55 46 43 52 43 37 64 60 53 42 39 37 35 49 64 69 77 74 76 76 78 81 83 83 81 77 75 73 72 71 66 65 66 65 64 62 59 56 52 50 49 46
57 34 65 46 75 50 43 43 49 62 65 51 54 46 33 71 70 76 75 70 75 77 81 82 80 79 80 82 74 69 70 69 67 66 67 67 66 66 64 62 58 51 48 46
50 62 68 67 81 76 68 72 54 48 56 47 50 40 64 77 69 76 76 71 76 79 82 82 84 81 82 76 70 66 65 64 60 58 57 59 63 65 64 62 61 61 60 60
60 66 73 82 74 73 52 72 67 51 50 48 56 65 67 74 79 74 72 74 79 79 82 82 83 77 77 77 67 63 60 59 58 52 52 55 60 63 65 68 69 73 74 74
64 72 76 75 87 66 62 73 74 72 70 71 57 79 84 80 77 80 71 74 76 79 81 80 83 78 69 60 65 55 46 51 48 44 48 53 62 67 69 72 70 71 78 78
75 73 70 90 87 78 67 65 54 68 69 81 78 84 84 80 86 83 73 75 79 80 78 72 68 62 54 44 59 52 45 50 47 45 45 53 62 67 68 68 66 67 77 72
83 83 82 88 94 80 71 69 65 77 68 84 83 82 84 82 80 80 77 78 79 74 62 58 54 50 45 47 52 50 47 50 45 50 55 60 62 64 64 64 67 65 69 74
86 91 90 89 93 88 77 70 75 70 89 86 86 86 84 87 79 79 76 67 55 52 52 48 44 43 41 41 45 46 47 41 47 52 57 57 58 53 45 62 61 68 79 83
82 74 80 74 74 74 88 81 90 87 83 90 89 89 82 78 75 70 77 76 50 49 46 46 45 46 46 46 47 48 42 43 44 50 51 53 55 52 51 62 63 69 72 85
79 75 77 75 81 82 85 95 92 88 87 90 87 82 83 88 84 84 63 56 51 47 46 46 49 54 53 50 47 47 43 44 51 52 52 54 62 55 57 61 63 69 67 72
71 76 80 81 78 88 84 88 87 91 86 85 75 77 78 77 69 58 54 52 53 56 56 58 60 59 54 50 50 51 49 50 53 52 55 58 57 57 56 54 56 60 60 64
80 74 79 82 66 68 70 80 85 92 82 72 74 63 56 58 58 69 62 62 62 60 63 65 63 62 56 54 53 51 58 61 59 60 61 60 59 59 61 63 64 60 61 63
Wind_Speed
1 6 3 5 5 5 6 5 4 1 1 3 6 6 12 6 4 7 7 6 6 6 1 3 4 6 7 5 6 6 5 3 2 1 2 1 1 1 2 3 5 5 4 5
6 3 2 4 3 6 4 4 2 1 1 2 3 11 11 4 6 7 8 8 8 5 4 4 5 5 4 6 5 4 3 2 1 2 1 2 2 1 2 1 4 5 5 6
6 3 1 3 2 6 3 4 3 2 1 2 5 9 4 0 2 1 1 4 5 9 9 6 6 5 4 5 4 4 4 3 2 3 2 2 2 2 3 3 3 4 5 5
6 3 2 4 4 2 3 1 2 5 4 3 3 6 5 3 5 2 2 3 7 7 6 6 6 5 5 4 3 3 3 3 2 2 2 2 2 1 0 0 1 2 4 4
2 3 4 5 2 1 3 2 4 3 5 4 3 5 9 4 4 5 4 4 6 7 7 7 6 5 4 5 4 3 3 3 2 3 4 4 3 2 1 0 2 3 3 3
2 1 4 2 3 3 6 5 7 5 3 4 2 5 8 2 2 4 1 3 6 6 5 5 5 5 4 3 3 3 4 3 3 3 3 4 4 3 2 1 1 1 1 2
5 4 3 3 5 3 5 6 4 5 5 7 2 3 11 4 3 2 4 6 6 6 6 6 6 5 5 7 7 5 5 4 4 3 3 3 3 4 4 3 3 2 1 1
5 4 3 5 2 4 2 4 7 6 3 5 2 6 8 3 3 1 4 4 6 6 5 6 7 7 6 6 6 6 6 5 4 3 3 4 5 3 3 3 3 3 2 2
5 2 3 3 2 2 3 2 4 9 3 3 3 8 6 4 4 2 4 3 5 5 4 3 3 5 6 6 7 7 6 6 5 5 4 4 4 4 4 4 3 2 3 2
5 5 1 2 0 3 1 5 5 4 3 4 5 6 8 3 5 1 1 4 3 3 4 4 4 5 5 6 6 6 6 7 5 4 4 4 4 4 4 3 4 4 4 2
3 4 3 1 4 6 2 0 5 4 4 5 2 9 6 5 3 5 4 4 5 6 7 6 6 5 4 4 5 6 5 5 4 4 3 4 4 4 4 4 4 4 2 3
1 5 3 2 2 1 1 3 4 6 5 1 2 10 1 2 1 5 5 5 4 5 5 5 7 7 7 7 6 4 3 4 4 3 3 3 4 3 3 4 5 3 4 4
4 0 3 6 4 3 4 4 4 4 3 7 7 8 2 3 4 4 7 6 5 5 6 5 6 7 7 7 7 5 4 3 2 1 1 2 2 3 4 5 5 4 5 5
2 2 5 8 4 5 4 4 5 5 4 5 8 5 5 5 7 6 6 5 5 6 6 5 7 7 7 7 9 9 8 7 6 5 5 4 5 5 5 5 5 5 5 6
3 2 1 3 3 2 4 5 9 10 6 8 5 10 4 9 10 8 6 5 6 5 6 6 5 5 6 7 7 7 7 7 6 6 6 5 5 4 5 5 6 6 5 5
4 1 2 2 2 4 6 7 8 8 3 8 2 14 7 3 8 7 8 8 6 5 4 4 4 5 6 6 6 6 6 6 6 6 6 6 6 6 6 6 6 6 6 6
3 5 2 3 3 5 7 9 11 5 5 7 9 7 5 3 6 7 7 7 7 6 5 4 4 3 3 4 3 5 5 4 6 5 5 5 4 5 5 6 6 6 6 5
6 5 2 3 3 2 5 3 4 9 5 8 1 1 2 0 4 6 5 6 7 6 4 3 2 2 2 2 3 3 4 4 5 5 5 6 6 6 7 7 7 6 5 6
0 4 2 3 3 7 2 2 3 4 3 0 3 4 4 4 5 3 4 6 7 6 4 4 4 3 2 2 2 2 3 4 4 5 5 5 5 6 6 7 8 7 6 6
4 4 4 2 3 6 2 2 1 1 5 2 4 5 7 3 2 4 6 4 4 4 2 2 1 1 2 3 3 3 5 5 6 7 7 6 6 6 7 7 9 6 5 9
3 1 5 3 3 9 4 3 2 2 4 1 4 5 7 4 3 1 7 4 3 2 1 2 2 4 6 5 4 7 7 8 9 7 7 6 6 7 7 8 6 8 8 7
7 7 5 3 2 8 3 1 2 4 2 2 3 4 5 4 5 5 5 4 3 3 3 3 4 6 7 6 4 8 9 10 9 8 7 7 7 7 7 7 10 8 6 7
4 6 5 8 6 2 1 2 1 3 2 2 4 4 6 5 4 5 3 4 5 4 4 3 5 7 7 7 6 8 11 7 9 8 9 8 8 8 8 7 9 7 6 5
4 4 3 2 2 4 3 2 3 5 4 4 3 4 4 3 4 5 3 2 3 3 5 3 5 7 8 6 7 8 10 9 7 10 10 9 6 10 8 6 7 7 8 7
4 5 5 3 4 1 4 5 4 4 4 5 5 4 3 3 2 2 1 2 4 5 4 4 6 7 10 9 10 8 8 8 10 11 10 10 8 10 10 9 8 7 9 9
5 5 4 5 4 4 4 3 4 6 5 5 4 3 3 3 3 1 3 3 3 6 5 6 7 7 11 10 12 11 7 7 11 11 9 9 8 8 7 8 9 14 20 22
Wind_Direction
24 81 165 192 170 147 125 112 146 236 6 157 238 264 271 266 224 225 220 222 218 198 131 101 112 120 122 124 136 151 151 146 126 114 129 82 104 29 54 49 40 35 30 34
36 110 177 120 99 109 111 115 166 9 69 135 352 280 258 215 230 209 205 205 208 178 158 123 124 133 145 148 148 143 134 135 124 119 134 126 145 117 103 48 41 30 35 25
131 170 183 128 106 93 45 141 169 145 70 67 337 296 267 70 266 303 164 202 175 188 174 163 160 158 138 149 157 149 164 148 92 126 117 84 70 48 35 22 9 7 23 24
91 313 129 94 92 83 138 195 137 120 92 218 18 273 304 343 291 270 306 221 194 167 154 166 164 157 165 172 164 165 151 146 146 107 90 96 110 109 69 34 303 353 21 20
290 21 66 75 93 348 146 98 93 81 96 64 6 67 270 357 299 270 237 220 202 188 174 173 169 173 187 162 177 179 174 151 116 103 117 122 118 131 159 51 25 10 2 20
69 11 53 74 48 32 155 78 48 57 77 29 330 118 284 272 267 316 287 205 193 179 167 161 181 169 176 171 181 187 188 186 154 130 121 128 144 151 117 96 60 332 311 338
17 355 348 39 73 22 69 64 13 8 10 216 271 47 245 265 256 283 300 218 189 172 175 189 189 189 193 199 204 205 201 210 185 167 152 147 157 170 181 187 196 213 269 272
138 330 11 354 56 177 71 137 148 190 186 263 352 242 255 244 272 334 356 163 158 181 188 200 206 209 215 218 218 217 213 224 202 191 199 192 191 192 198 198 201 218 221 246
135 16 329 38 0 75 179 125 144 105 16 45 238 286 297 258 265 30 57 133 176 176 194 238 258 236 233 234 233 221 221 229 220 213 209 211 207 201 211 218 217 228 241 248
190 96 6 321 59 41 187 155 74 358 166 248 290 276 240 235 234 159 164 183 119 78 34 345 311 278 257 249 250 234 226 232 234 225 222 226 226 227 231 225 241 241 257 252
144 103 267 12 206 183 132 101 51 114 129 171 252 263 211 214 234 184 146 106 83 59 39 20 2 344 303 286 263 248 229 230 241 234 240 237 236 229 226 233 246 249 258 265
185 124 143 213 295 297 260 212 156 127 216 95 137 274 198 287 343 144 109 83 71 74 62 38 22 15 17 359 327 280 263 243 255 273 280 290 314 319 294 280 282 278 269 270
179 87 59 356 358 352 222 198 130 108 88 201 146 259 74 67 85 105 140 137 121 101 72 51 39 32 21 13 11 12 1 334 335 343 359 352 316 309 297 300 302 291 281 275
97 128 171 186 188 132 196 198 188 144 133 183 224 265 218 208 189 180 166 144 116 89 75 61 44 34 26 24 31 31 30 26 26 40 47 30 1 342 326 314 306 294 283 281
74 227 88 277 253 219 220 187 182 198 191 180 235 206 234 214 201 186 165 142 123 106 80 68 61 43 34 33 30 30 32 34 39 55 50 29 6 350 332 324 312 300 288 274
2 278 90 303 24 233 265 244 222 233 249 277 342 276 216 55 115 151 171 162 147 136 118 97 74 64 51 41 37 32 29 28 33 37 27 13 10 358 350 343 337 322 310 300
133 137 106 263 314 297 287 225 202 188 201 183 219 242 174 187 188 174 161 153 159 163 156 137 96 71 62 49 39 32 17 17 31 25 5 358 345 339 331 321 317 313 306 298
146 134 144 235 342 276 242 154 167 204 225 215 278 128 167 62 100 108 130 150 158 165 158 101 66 30 4 349 19 356 7 14 10 2 351 346 344 334 326 325 314 300 288 284
92 126 150 193 212 296 332 74 128 163 314 129 209 96 79 112 77 56 151 159 171 171 155 168 182 194 221 281 312 343 345 343 342 328 319 314 312 306 302 296 289 283 282 281
70 63 124 127 190 231 262 284 287 187 313 8 118 141 147 137 115 252 182 157 143 137 140 175 247 290 300 275 300 305 288 287 282 270 259 258 259 266 278 275 279 272 257 279
120 91 199 188 240 285 245 282 307 121 252 257 171 166 160 159 185 220 129 123 117 112 242 255 287 274 271 287 275 277 275 265 260 266 263 262 261 261 258 269 260 268 272 272
172 152 195 126 180 272 354 13 164 209 206 168 136 161 169 130 118 119 112 101 100 224 264 288 293 291 290 288 279 275 272 275 275 269 268 266 262 266 275 262 279 269 260 265
229 189 182 183 216 228 236 141 178 178 202 180 141 158 154 141 124 142 140 223 223 244 278 284 263 279 284 280 264 276 281 282 281 280 275 272 271 267 263 257 267 274 262 248
233 162 198 133 210 223 210 177 192 188 199 186 173 127 113 129 166 203 189 224 272 275 268 259 283 284 284 274 264 239 277 283 272 273 275 276 259 277 265 249 250 256 264 264
209 153 176 252 255 301 265 230 197 181 166 155 138 134 150 155 177 170 192 276 270 279 292 299 303 295 293 300 296 286 273 278 285 286 283 280 274 270 273 264 260 256 260 250
181 187 175 225 205 168 228 186 180 182 178 146 128 122 92 110 125 72 305 285 297 313 321 318 305 297 296 293 290 292 268 257 268 279 281 276 278 276 267 271 280 267 276 282